sat.trackr.live / text

‹ back to catalog

HJS-9B

NORAD 68832 · 2026-091B

PAYLOAD ACTIVE UNKNOWN

§ Identity

Operator
Country
PRC
Launch date
2026-04-24
Launch site
XICLF
Launch vehicle
Mass (kg)
RCS (m²)

External: N2YO · Heavens-Above · Gunter

§ Orbital elements

Epoch: 2026-05-24T07:39:09.852192Z

Period
94.79 min
Inclination
55.0016°
Eccentricity
0.0010824
Mean motion
15.19207180 rev/d
Perigee alt
500.8 km
Apogee alt
515.7 km
Semi-major
6,886.4 km
B*
5.1042e-4
RAAN
125.9967°
Arg perigee
0.9083°
Mean anomaly
359.1955°
Rev number
457

§ Raw data

HJS-9B1 68832U 26091B   26144.31886403  .00010579  00000+0  51042-3 0  99912 68832  55.0016 125.9967 0010824   0.9083 359.1955 15.19207180  4577

JSON: /api/v1/satellites/68832 · /tle

For live sub-satellite position, see the globe view (requires WebGL).

§ Visibility from observer

Set your observer location to see the next 7 days of passes ≥ 10°. The values pass through the URL so the page stays shareable.

No JS? Fill the form by hand. The geolocation button needs JavaScript.